Location: Niverville
(49.6028°N, 97.0419°W)
Time: 16:27:04
(UTC-05:00)

ISS - All Passes

Search period start: 31 July 2015 00:00
Search period end: 10 August 2015 00:00
Orbit: 401 x 403 km, 51.6° (Epoch: 31 July)

Date Brightness Start Highest point End Pass type
(mag) Time Alt. Az. Time Alt. Az. Time Alt. Az.
31 Jul - 00:29:31 10° WSW 00:32:48 81° NNW 00:36:05 10° ENE visible
31 Jul - 02:06:10 10° WNW 02:09:24 59° N 02:12:39 10° E visible
31 Jul - 03:42:40 10° WNW 03:45:54 65° SSW 03:49:09 10° ESE visible
31 Jul - 05:19:57 10° WSW 05:21:53 15° SW 05:23:45 10° S visible
31 Jul - 22:01:31 10° S 22:03:46 17° SE 22:06:03 10° E visible
31 Jul - 23:36:33 10° WSW 23:39:49 74° SSE 23:43:04 10° ENE visible
01 Aug - 01:13:06 10° W 01:16:21 57° N 01:19:35 10° ENE visible
01 Aug - 02:49:39 10° WNW 02:52:56 89° NNE 02:56:13 10° ESE visible
01 Aug - 04:26:24 10° W 04:29:06 23° SW 04:31:46 10° SSE visible
01 Aug - 21:10:23 10° SSE 21:11:00 10° SE 21:11:43 10° ESE daylight
01 Aug - 22:43:42 10° SW 22:46:51 49° SSE 22:50:02 10° ENE visible
02 Aug - 00:20:02 10° W 00:23:17 63° N 00:26:32 10° ENE visible
02 Aug - 01:56:39 10° WNW 01:59:55 70° NNE 02:03:11 10° E visible
02 Aug - 03:33:11 10° W 03:36:14 37° SSW 03:39:17 10° SE night (unlit)
02 Aug - 21:51:02 10° SSW 21:53:57 31° SSE 21:56:55 10° E visible
02 Aug - 23:26:58 10° W 23:30:14 76° NNW 23:33:30 10° ENE visible
03 Aug - 01:03:36 10° WNW 01:06:51 60° N 01:10:05 10° E visible
03 Aug - 02:40:06 10° WNW 02:43:19 58° SSW 02:46:32 10° SE visible
03 Aug - 04:17:40 10° WSW 04:19:14 13° SW 04:20:44 10° SSW night (unlit)
03 Aug - 20:58:40 10° S 21:01:06 20° SE 21:03:35 10° E daylight
03 Aug - 22:33:56 10° WSW 22:37:12 82° SSE 22:40:29 10° ENE visible
04 Aug - 00:10:32 10° W 00:13:45 57° N 00:17:00 10° E visible
04 Aug - 01:47:03 10° WNW 01:50:20 84° SSW 01:53:36 10° ESE visible
04 Aug - 03:23:53 10° W 03:26:26 21° SW 03:28:57 10° SSE night (unlit)
04 Aug - 20:06:59 10° SSE 20:08:18 12° SE 20:09:43 10° ESE daylight
04 Aug - 21:41:01 10° SW 21:44:12 55° SSE 21:47:25 10° ENE visible
04 Aug - 23:17:25 10° W 23:20:40 61° N 23:23:55 10° ENE visible
05 Aug - 00:54:01 10° WNW 00:57:17 74° NNE 01:00:33 10° E visible
05 Aug - 02:30:35 10° W 02:33:34 33° SSW 02:36:32 10° SSE night (unlit)
05 Aug - 20:48:15 10° SW 20:51:16 35° SSE 20:54:18 10° E daylight
05 Aug - 22:24:19 10° W 22:27:35 71° NNW 22:30:51 10° ENE visible
06 Aug - 00:00:57 10° WNW 00:04:12 62° N 00:07:27 10° E visible
06 Aug - 01:37:27 10° WNW 01:40:38 51° SSW 01:43:49 10° SE visible
06 Aug - 03:15:28 10° WSW 03:16:30 11° SW 03:17:26 10° SSW night (unlit)
06 Aug - 19:55:46 10° SSW 19:58:22 22° SE 20:01:01 10° E daylight
06 Aug - 21:31:14 10° WSW 21:34:30 88° S 21:37:48 10° ENE visible
06 Aug - 23:07:52 10° W 23:11:06 57° N 23:14:20 10° E visible
07 Aug - 00:44:22 10° WNW 00:47:38 77° SSW 00:50:54 10° ESE visible
07 Aug - 02:21:20 10° W 02:23:42 18° SW 02:26:00 10° S night (unlit)
07 Aug - 19:03:47 10° S 19:05:31 14° SE 19:07:21 10° ESE daylight
07 Aug - 20:38:15 10° WSW 20:41:29 62° SSE 20:44:43 10° ENE daylight
07 Aug - 22:14:44 10° W 22:17:58 59° N 22:21:13 10° ENE visible
07 Aug - 23:51:18 10° WNW 23:54:34 79° NNE 23:57:51 10° ESE visible
08 Aug - 01:27:55 10° W 01:30:49 29° SW 01:33:41 10° SSE visible
08 Aug - 19:45:25 10° SW 19:48:30 40° SSE 19:51:35 10° E daylight
08 Aug - 21:21:35 10° W 21:24:51 68° N 21:28:07 10° ENE daylight
08 Aug - 22:58:13 10° WNW 23:01:29 64° N 23:04:44 10° E visible
09 Aug - 00:34:43 10° WNW 00:37:52 46° SSW 00:41:00 10° SE visible
09 Aug - 18:52:49 10° SSW 18:55:34 25° SE 18:58:20 10° E daylight
09 Aug - 20:28:28 10° WSW 20:31:45 85° NNW 20:35:02 10° ENE daylight
09 Aug - 22:05:07 10° WNW 22:08:20 58° N 22:11:35 10° E visible
09 Aug - 23:41:36 10° WNW 23:44:52 70° SSW 23:48:06 10° ESE visible
